CW6344 Weather Reports


time (UTC)temp
F
wind
direction
speed
knots
gust
knots
rain 1hr
in
rain 24hr
in
rain mn
in
humidity
%
barometer
mb
20260906100609 65 132 0.0 0.0 0.00 0.00 0.00 93 1013.1
20260906094409 65 132 0.0 0.0 0.00 0.00 0.00 93 1012.8
20260906093409 65 132 0.0 0.0 0.00 0.00 0.00 93 1012.8
20260906092409 66 132 0.0 0.0 0.00 0.00 0.00 93 1012.6
20260906091409 66 132 0.0 0.0 0.00 0.00 0.00 92 1012.6
20260906090409 66 132 0.0 0.0 0.00 0.00 0.00 92 1012.4
20260906085409 66 132 0.0 0.0 0.00 0.00 0.00 92 1012.3
20260906084539 66 132 0.0 0.0 0.00 0.00 0.00 92 1012.2
20260906083409 66 132 0.0 0.0 0.00 0.00 0.00 92 1012.3
20260906082409 66 132 0.0 0.0 0.00 0.00 0.00 92 1012.2
20260906080409 66 132 0.0 0.0 0.00 0.00 0.00 92 1012.2
20260906075409 66 132 0.0 0.0 0.00 0.00 0.00 92 1012.2
20260906074409 66 132 0.0 0.0 0.00 0.00 0.00 92 1012.1
20260906073409 67 132 0.0 0.0 0.00 0.00 0.00 92 1012.1
20260906072409 67 132 0.0 0.0 0.00 0.00 0.00 92 1012.1
20260906070409 67 132 0.0 0.0 0.00 0.00 0.00 92 1012.0
20260906065409 67 132 0.0 0.0 0.00 0.00 0.00 92 1012.0
20260906064409 68 132 0.0 0.0 0.00 0.00 0.00 92 1012.0
20260906063409 68 132 0.0 0.0 0.00 0.00 0.00 92 1012.1
20260906062409 68 132 0.0 0.0 0.00 0.00 0.00 92 1012.0
20260906061409 68 132 0.0 0.0 0.00 0.00 0.00 92 1012.1
20260906060410 68 132 0.0 0.0 0.00 0.00 0.00 92 1012.1
20260906055409 68 132 0.0 0.0 0.00 0.00 0.00 92 1012.2
20260906054409 69 132 0.0 0.0 0.00 0.00 0.00 92 1012.2
20260906053409 69 132 0.0 0.0 0.00 0.00 0.00 91 1012.2
20260906052409 69 132 0.0 0.0 0.00 0.00 0.00 92 1012.2
20260906051409 69 132 0.0 0.0 0.00 0.00 0.00 92 1012.4
20260906050439 69 132 0.0 0.0 0.00 0.00 0.00 91 1012.4
20260906045409 70 132 0.0 0.0 0.00 0.00 0.00 91 1012.4
20260906044409 70 132 0.0 0.0 0.00 0.00 0.00 91 1012.5
20260906043409 70 132 0.0 0.0 0.00 0.00 0.00 91 1012.5
20260906042439 70 132 0.0 0.0 0.00 0.00 0.00 91 1012.5
20260906041409 70 132 0.0 0.0 0.00 0.00 0.00 91 1012.5
20260906040410 70 132 0.0 0.0 0.00 0.00 0.00 91 1012.4
20260906035409 70 132 0.0 0.0 0.00 0.00 0.00 90 1012.4
20260906034409 70 132 0.0 0.0 0.00 0.00 0.00 90 1012.5
20260906033409 70 132 0.0 0.0 0.00 0.00 0.00 90 1012.5
20260906032409 70 132 0.0 0.0 0.00 0.00 0.00 90 1012.6
20260906031409 70 132 0.0 0.0 0.00 0.00 0.00 89 1012.5
20260906030440 71 132 0.0 0.0 0.00 0.00 0.00 89 1012.4
20260906025410 71 132 0.0 0.0 0.00 0.00 0.00 89 1012.4
20260906024409 71 132 0.0 0.0 0.00 0.00 0.00 88 1012.4
20260906023410 71 132 0.0 0.0 0.00 0.00 0.00 88 1012.5
20260906022410 72 132 0.0 0.0 0.00 0.00 0.00 87 1012.5
20260906021409 72 132 0.0 0.0 0.00 0.00 0.00 87 1012.5
20260906020409 72 132 0.0 0.0 0.00 0.00 0.00 87 1012.5
20260906015410 72 132 0.0 0.0 0.00 0.00 0.00 87 1012.5
20260906014410 73 132 0.0 0.0 0.00 0.00 0.00 86 1012.3
20260906013410 73 132 0.0 0.0 0.00 0.00 0.00 86 1012.2
20260906012409 73 132 0.0 0.0 0.00 0.00 0.00 86 1012.2
20260906011410 72 132 0.0 0.0 0.00 0.00 0.00 87 1012.0
20260906010409 73 132 0.0 0.0 0.00 0.00 0.00 87 1011.8
20260906005411 73 132 0.0 0.0 0.00 0.00 0.00 86 1011.6
20260906004410 73 132 0.0 0.0 0.00 0.00 0.00 86 1011.6
20260906003410 74 132 0.0 0.0 0.00 0.00 0.00 86 1011.5
20260906002440 73 132 0.0 0.0 0.00 0.00 0.00 86 1011.4
20260906001410 74 132 0.0 0.0 0.00 0.00 0.00 86 1011.5
20260906000411 75 132 0.0 0.0 0.00 0.00 0.00 85 1011.3
20260905235410 75 132 0.0 0.0 0.00 0.00 0.00 85 1011.5
20260905234440 75 132 0.0 0.0 0.00 0.00 0.00 85 1011.4
20260905233410 75 132 0.0 0.0 0.00 0.00 0.00 84 1011.4
20260905232409 75 128 0.0 0.0 0.00 0.00 0.00 84 1011.4
20260905231410 75 310 0.0 0.0 0.00 0.00 0.00 84 1011.4
20260905230410 76 284 0.0 0.0 0.00 0.00 0.00 82 1011.4
20260905225410 76 284 0.0 0.0 0.00 0.00 0.00 83 1011.4
20260905224410 76 284 0.0 0.0 0.00 0.00 0.00 82 1011.2
20260905223410 77 284 0.0 0.0 0.00 0.00 0.00 82 1011.1
20260905222410 78 284 0.0 0.0 0.00 0.01 0.00 83 1010.9
20260905220410 78 284 0.0 0.0 0.00 0.01 0.00 79 1010.8
20260905214410 78 284 0.0 0.0 0.00 0.01 0.00 79 1011.0
20260905213410 78 284 0.0 0.0 0.00 0.01 0.00 79 1011.0
20260905212410 78 284 0.0 0.0 0.00 0.01 0.00 79 1010.9
20260905210410 79 284 0.0 0.0 0.00 0.01 0.00 77 1010.7
20260905205410 80 285 0.0 1.7 0.00 0.01 0.00 76 1010.8
20260905204410 81 5 0.0 0.9 0.00 0.01 0.00 74 1010.5
20260905203410 81 315 2.6 2.6 0.00 0.01 0.00 75 1010.5
20260905202410 81 311 0.0 1.7 0.00 0.01 0.00 72 1010.6
20260905201410 81 261 0.0 0.0 0.00 0.01 0.00 73 1010.6
20260905200410 80 360 0.0 0.9 0.00 0.01 0.00 72 1010.7
20260905194410 80 19 0.0 0.0 0.00 0.01 0.00 78 1010.6
20260905193410 79 250 0.0 1.7 0.00 0.01 0.00 78 1010.5
20260905192410 79 225 0.0 0.0 0.00 0.01 0.00 76 1010.4
20260905191410 80 225 0.0 0.0 0.00 0.01 0.00 77 1010.6
20260905190410 79 36 0.0 0.0 0.00 0.01 0.00 77 1010.6
20260905185410 78 70 0.0 0.0 0.00 0.01 0.00 79 1010.3
20260905184410 78 70 0.0 0.0 0.00 0.01 0.00 80 1010.3
20260905182440 78 320 0.0 0.0 0.00 0.01 0.00 82 1011.2
20260905181410 78 320 0.0 0.0 0.00 0.01 0.00 84 1011.4
20260905180410 78 318 0.0 0.0 0.00 0.01 0.00 82 1012.1
20260905175410 78 318 0.0 0.0 0.00 0.01 0.00 82 1012.2
20260905174410 79 318 0.0 0.0 0.00 0.01 0.00 80 1012.4
20260905173410 78 318 0.0 0.0 0.00 0.01 0.00 81 1012.4
20260905172410 79 318 0.0 0.0 0.00 0.01 0.00 81 1012.3
20260905171410 80 318 0.0 0.0 0.00 0.01 0.00 79 1012.4
20260905170440 80 306 0.0 0.9 0.00 0.01 0.00 77 1012.3
20260905165410 80 350 0.0 0.9 0.00 0.01 0.00 77 1012.4
20260905164510 80 292 0.9 2.6 0.00 0.01 0.00 77 1012.3
20260905162410 80 265 0.0 2.6 0.00 0.01 0.00 79 1012.0
20260905160410 80 279 0.0 2.6 0.00 0.01 0.00 80 1012.3
20260905155410 80 296 0.9 1.7 0.00 0.01 0.00 81 1012.2
20260905154410 79 67 0.0 0.0 0.00 0.01 0.00 82 1012.2
20260905153410 80 301 0.0 1.7 0.00 0.01 0.00 83 1012.2
20260905152410 80 64 0.9 2.6 0.00 0.01 0.00 82 1012.3
20260905151410 80 286 1.7 1.7 0.00 0.01 0.00 83 1012.3
20260905150410 80 286 0.9 4.3 0.00 0.01 0.00 82 1012.3
20260905144410 79 276 2.6 2.6 0.00 0.01 0.00 82 1012.3
20260905143410 80 113 0.0 1.7 0.00 0.01 0.00 81 1012.1
20260905142410 80 327 2.6 2.6 0.00 0.01 0.00 83 1011.8
20260905140440 79 146 0.0 4.3 0.00 0.01 0.00 82 1011.8
20260905135410 79 282 0.0 0.0 0.00 0.01 0.00 83 1011.9
20260905134410 79 267 1.7 1.7 0.00 0.01 0.00 82 1011.9
20260905133410 78 242 0.0 0.0 0.00 0.01 0.00 84 1012.0
20260905132410 78 242 0.0 0.0 0.00 0.01 0.00 84 1011.8
20260905131410 78 186 0.0 0.0 0.00 0.01 0.00 83 1011.7
20260905130410 78 259 0.0 2.6 0.00 0.01 0.00 83 1011.7
20260905124410 77 284 0.0 0.0 0.00 0.01 0.00 84 1011.7
20260905123410 77 316 0.9 0.9 0.00 0.01 0.00 85 1011.7
20260905122410 77 5 0.0 0.0 0.00 0.01 0.00 85 1011.7
20260905121410 76 28 0.9 0.9 0.00 0.01 0.00 85 1011.7
20260905120410 76 269 0.0 0.0 0.00 0.01 0.00 86 1011.6
20260905115410 76 269 0.0 0.9 0.00 0.01 0.00 86 1011.7
20260905114410 76 299 0.0 0.0 0.00 0.01 0.00 86 1011.5
20260905112410 75 323 0.0 0.0 0.00 0.01 0.00 88 1011.3
20260905110410 74 333 0.0 0.0 0.00 0.01 0.00 89 1011.1
20260905105410 73 338 0.0 0.0 0.00 0.01 0.00 90 1011.0
20260905104410 73 321 0.0 0.0 0.00 0.01 0.00 90 1011.1
20260905103410 73 307 0.0 3.5 0.00 0.01 0.00 90 1010.9
20260905102510 73 302 0.0 0.0 0.00 0.01 0.00 90 1010.8
20260905101410 73 302 0.0 0.0 0.00 0.01 0.00 90 1010.7